Location: Unspecified
(0.0000°N, 0.0000°E)
Time: 22:14:58
(UTC+00:00)

CZ-3B DEB - Visible Passes

Search period start: 09 February 2026 00:00
Search period end: 19 February 2026 00:00
Orbit: 684 x 44347 km, 22.6° (Epoch: 9 February)

Date Brightness Start Highest point End Pass type
(mag) Time Alt. Az. Time Alt. Az. Time Alt. Az.
9 Feb ? 04:11:26 29° NW 04:40:38 69° NE 17:16:24 10° E visible
10 Feb ? 20:23:44 10° W 20:29:53 32° NW 20:29:53 32° NW visible
11 Feb ? 05:13:00 10° ESE 07:38:54 22° ESE 08:59:04 10° ESE visible
12 Feb ? 00:05:17 11° ENE 00:05:17 11° ENE 00:06:15 10° ENE visible
12 Feb ? 03:04:39 10° E 10:14:36 64° SSE 12:52:44 10° ESE visible
13 Feb ? 03:14:49 43° NNW 03:28:47 59° NE 16:16:38 10° E visible
14 Feb ? 19:18:13 10° WSW 19:30:36 56° NNW 19:32:57 27° NE visible
15 Feb ? 06:02:17 10° ESE 06:41:45 11° ESE 07:14:08 10° ESE visible
16 Feb ? 03:23:01 10° E 09:42:15 56° SE 11:49:50 10° ESE visible
17 Feb ? 02:18:13 47° NNE 02:22:44 49° NE 15:16:39 10° E visible
18 Feb ? 05:27:59 10° WNW 06:56:01 80° W 14:50:02 10° WSW visible
